Wind_Speed
91 91 90 90 87 84 80 80 78 78 78 79 82 82 80 77 72 68 64 63 61 58 60 62 62 56 56 57 54 47 49 47 43 41 44 41 38 38 34 36 39 39 34 32 32 33 32
98 95 94 94 90 87 86 85 83 82 82 84 82 80 79 77 76 70 68 66 64 58 59 63 59 59 58 56 58 52 52 46 44 48 47 42 42 40 38 36 44 45 36 34 32 32 33
101 102 101 96 93 91 91 90 86 84 86 84 85 83 80 79 78 77 73 68 65 62 64 66 64 65 58 62 60 51 48 52 55 53 49 46 46 44 45 42 45 46 41 33 35 31 33
109 106 108 106 103 99 96 96 93 91 88 90 88 87 84 81 78 78 75 74 69 67 65 66 66 65 58 66 65 60 61 66 55 51 49 48 47 44 45 43 44 46 41 36 35 34 34
116 113 112 112 114 109 102 101 100 96 94 94 91 92 91 81 76 77 77 75 71 68 68 64 64 61 57 67 67 66 62 63 58 57 52 50 46 47 49 48 50 49 43 41 38 38 38
126 127 123 118 114 113 110 107 105 104 104 97 93 94 94 87 82 77 76 74 74 70 73 63 59 61 63 70 70 68 67 64 65 61 57 55 50 50 51 52 51 51 45 41 43 42 39
146 141 133 130 127 121 123 124 119 114 110 111 108 104 101 92 86 86 81 76 73 74 73 63 63 64 66 70 70 70 71 70 63 62 61 56 51 50 55 52 51 47 47 44 48 46 42
147 147 147 142 140 142 140 137 134 134 131 125 117 110 107 102 87 92 91 77 78 78 71 67 68 63 66 67 67 69 71 74 69 64 62 58 51 58 56 55 51 49 51 49 50 50 45
113 117 124 136 136 136 136 134 130 127 125 118 115 109 111 106 98 95 92 81 81 84 82 74 72 65 66 63 61 63 69 69 67 65 59 57 56 56 54 55 52 51 51 54 54 52 49
112 113 113 115 122 123 130 132 130 121 119 114 113 113 108 108 109 99 90 90 89 87 89 81 76 67 66 66 56 63 66 70 66 65 59 53 51 53 51 51 52 53 55 57 55 53 52
113 114 113 112 116 116 118 118 120 129 126 119 116 118 120 120 112 105 95 92 90 92 96 85 78 75 68 67 65 62 66 70 64 61 58 53 53 53 50 51 52 52 54 58 53 55 55
104 107 111 114 117 116 117 120 119 112 114 119 125 128 125 115 112 109 100 94 99 105 102 88 83 81 76 69 71 62 69 69 65 61 56 56 53 52 49 49 50 52 54 55 55 56 52
96 99 102 105 109 116 120 117 118 117 113 109 104 114 121 119 112 107 101 103 107 110 96 92 88 84 86 77 75 70 69 72 68 65 58 63 56 51 50 56 56 56 58 59 59 57 54
87 90 92 95 100 106 109 117 118 121 117 115 105 105 117 118 116 109 108 109 116 106 90 81 89 85 84 79 74 75 74 70 67 68 70 68 61 58 57 55 55 55 59 63 61 60 59
75 79 83 86 90 94 101 106 113 120 123 122 116 113 106 115 118 117 118 122 119 104 92 94 86 88 86 83 78 77 75 73 72 71 72 72 68 61 61 65 65 63 58 63 66 63 61
63 66 70 76 82 86 91 97 104 111 120 125 122 119 106 111 120 125 131 129 122 115 104 96 96 94 80 83 83 77 80 75 74 74 74 71 73 68 64 64 65 62 63 63 65 66 67
58 60 61 64 70 76 82 87 95 105 112 122 130 131 111 112 116 130 141 132 126 112 118 115 107 94 87 89 82 82 80 77 75 78 77 71 74 72 71 68 67 64 65 66 67 71 72
51 55 58 59 60 66 72 79 86 97 108 118 123 131 120 123 130 124 132 132 129 119 118 118 114 104 105 97 89 84 81 79 80 80 80 78 76 80 81 77 73 68 64 63 66 71 74
50 50 50 50 53 58 64 71 80 89 101 109 112 114 132 133 138 128 120 126 127 129 121 113 107 109 105 102 99 90 97 88 86 84 85 85 83 86 83 80 72 71 73 73 72 76 75
42 42 40 42 46 52 57 64 73 82 91 101 106 112 133 142 136 129 124 117 127 128 123 112 112 109 110 104 98 90 91 89 91 91 85 91 84 83 82 81 76 75 76 75 78 75 76
37 36 32 34 40 46 52 57 67 75 84 93 100 103 120 134 138 137 130 124 121 129 128 123 121 114 113 105 99 90 91 92 86 84 86 88 83 86 88 81 82 81 77 77 75 76 81
32 33 30 28 32 39 46 51 58 69 77 85 90 97 112 121 131 131 131 130 124 127 126 118 119 111 111 99 88 91 98 99 96 95 93 88 84 90 92 89 90 83 81 79 78 84 84
24 25 25 26 28 33 38 43 50 57 65 73 79 91 103 116 122 132 133 134 130 126 121 108 105 113 110 105 99 101 103 103 104 101 97 96 94 93 94 93 98 90 81 86 85 85 87
14 19 22 24 26 30 33 38 45 50 54 66 74 83 90 105 115 121 131 135 133 127 111 105 105 112 114 108 105 105 111 109 100 102 101 100 98 101 102 100 100 89 86 89 85 85 89
14 12 19 21 23 26 31 36 39 43 50 58 67 74 81 97 110 116 125 133 131 125 117 101 106 110 107 104 108 108 113 108 109 102 98 96 99 101 103 97 97 90 91 96 98 99 93
15 16 15 18 19 21 26 30 34 39 43 49 58 65 76 90 100 110 117 125 129 131 124 110 106 108 110 111 111 113 112 111 111 101 98 99 103 107 106 107 107 99 98 104 104 103 104
12 12 16 14 14 17 21 25 30 34 37 43 51 62 72 81 91 105 110 119 127 125 124 113 107 103 105 107 113 116 115 121 114 107 107 108 110 111 105 108 108 105 105 108 110 110 109
17 11 12 12 11 12 16 20 24 28 31 37 46 58 66 75 83 96 106 115 120 124 121 111 106 104 100 107 113 118 116 116 113 111 110 111 113 113 116 117 114 112 114 115 115 114 114
16 14 13 14 11 7 9 14 18 23 30 38 46 53 60 66 78 89 100 104 112 123 123 103 104 106 104 104 107 114 113 109 109 106 104 109 113 114 118 120 117 114 118 118 119 119 120
Wind_Direction
264 264 264 265 264 261 260 260 261 260 259 257 256 259 260 261 263 263 262 262 264 261 257 263 272 270 263 269 269 265 262 261 262 268 272 273 279 279 266 271 275 279 286 281 285 288 291
265 266 262 263 265 263 261 260 262 261 261 260 257 258 258 259 261 260 260 260 260 257 256 262 263 267 266 265 270 269 259 260 265 270 273 270 278 277 267 267 273 278 282 280 278 285 287
257 261 261 260 260 261 261 262 262 262 263 264 261 257 258 258 258 258 257 255 256 255 252 256 260 264 264 264 265 266 264 263 263 268 270 270 272 272 268 263 271 277 281 276 279 281 283
261 255 257 259 257 255 254 258 259 261 261 262 261 261 260 258 257 256 257 255 254 254 256 253 255 258 257 260 263 259 251 257 262 261 266 272 273 268 268 267 265 273 278 276 279 276 279
260 258 255 255 257 256 255 256 253 255 257 259 260 261 262 254 253 254 256 254 257 251 247 252 253 254 257 259 258 258 255 257 257 262 263 267 268 265 264 264 263 268 273 276 275 271 274
257 260 257 251 253 254 256 254 253 254 254 254 253 258 258 253 253 252 255 256 257 249 246 250 247 251 254 254 256 256 257 257 256 259 262 264 263 264 265 263 261 267 274 272 268 269 273
260 257 255 252 253 250 254 256 256 258 258 255 252 258 253 252 252 251 251 254 256 254 247 242 242 250 250 252 251 258 257 256 258 260 265 264 263 261 258 260 265 263 264 266 266 269 268
259 259 256 254 254 254 256 257 257 258 257 258 255 254 252 251 252 253 251 250 252 251 246 240 244 247 250 248 251 254 256 257 258 259 264 263 258 256 259 260 261 255 261 267 263 264 267
252 251 251 255 256 255 255 256 255 255 253 252 250 248 248 247 250 252 253 249 248 249 248 241 242 243 247 246 251 253 256 257 259 263 262 257 257 259 259 259 255 250 258 261 264 267 270
251 247 246 246 245 247 249 251 252 250 248 246 247 245 245 246 247 249 249 249 246 247 249 245 245 241 239 243 247 254 255 256 257 261 254 255 257 256 253 255 254 256 254 259 263 268 269
250 247 243 243 242 240 241 241 243 241 242 242 243 242 244 245 245 245 247 249 251 248 248 246 242 237 241 245 241 249 253 253 257 255 251 251 252 254 256 257 257 254 255 261 265 264 266
253 250 247 242 239 238 239 238 237 237 238 239 238 237 239 237 240 242 242 246 247 247 245 240 239 243 242 245 245 244 251 249 251 253 253 252 252 254 255 256 258 258 258 261 260 260 268
253 252 249 246 244 239 236 235 234 233 232 232 232 230 230 230 233 234 235 239 242 242 244 246 244 244 245 243 245 245 245 249 248 249 249 251 250 244 249 257 256 255 256 258 261 265 268
251 250 249 247 245 243 239 234 231 230 228 227 224 225 226 226 227 229 230 233 235 238 238 238 246 244 240 242 243 243 245 250 251 248 246 247 247 248 246 248 252 257 261 267 270 267 264
254 251 249 247 245 242 239 238 234 230 227 225 222 220 223 221 222 225 227 231 235 235 238 240 243 238 241 246 241 241 245 248 250 248 248 244 246 249 249 249 253 259 265 263 265 269 268
258 254 248 248 245 242 238 235 235 231 227 224 222 219 215 219 220 224 227 227 230 231 230 227 232 242 242 241 243 246 243 247 248 251 250 248 246 243 247 254 258 259 262 265 266 268 267
260 258 254 248 242 241 238 235 232 230 229 225 222 219 211 217 221 223 224 223 225 226 228 231 234 235 235 241 241 247 243 242 249 251 252 253 250 248 251 254 258 262 263 264 267 268 268
263 256 252 247 243 240 237 235 232 229 227 227 224 221 214 219 221 222 222 224 221 220 229 232 234 234 233 238 240 244 245 251 249 253 251 251 254 254 256 259 258 260 260 270 271 269 270
261 260 257 252 248 241 235 233 230 229 228 228 225 221 216 219 220 220 222 224 223 220 221 228 234 234 238 241 243 243 244 251 250 251 252 253 256 255 257 260 266 267 262 270 267 274 278
271 267 260 254 246 243 238 231 229 228 227 228 226 220 219 219 218 220 225 226 227 219 221 219 229 230 233 236 240 243 249 253 252 250 252 253 257 254 258 263 262 265 269 266 272 272 270
273 273 265 253 245 242 238 234 230 226 226 226 226 224 222 223 220 219 220 222 224 221 219 219 223 225 228 234 238 242 245 250 249 250 250 253 249 252 258 261 260 270 268 267 270 266 269
274 272 270 258 244 243 239 235 232 230 227 226 225 222 223 224 221 219 221 223 222 223 217 218 223 221 227 233 238 243 246 245 247 247 250 249 251 253 259 259 264 268 271 266 271 269 271
274 275 271 260 253 241 238 237 234 232 231 229 224 222 221 221 223 220 218 222 222 226 219 219 221 219 221 229 232 236 240 244 247 246 247 247 253 252 257 258 264 268 271 264 269 271 270
279 283 275 265 255 247 241 238 235 233 227 226 223 220 220 221 221 222 219 220 222 225 221 219 221 220 218 221 227 231 239 239 242 242 244 248 251 253 259 260 267 269 265 269 268 269 272
309 292 284 271 259 250 243 235 232 230 227 224 222 220 218 216 218 220 220 219 221 223 222 218 219 220 218 219 225 228 237 238 241 241 243 246 250 255 259 261 262 270 266 267 266 268 270
329 321 301 278 265 253 242 236 233 229 225 223 221 216 214 214 217 218 218 220 220 222 222 214 217 217 215 217 221 227 233 238 239 240 243 247 250 255 255 260 265 268 267 267 268 269 267
340 338 318 292 272 258 243 234 228 226 222 219 215 213 212 213 215 215 217 219 221 222 222 217 215 216 217 219 224 227 230 233 235 238 243 247 251 254 257 263 266 267 269 267 271 272 272
341 351 339 319 297 266 244 233 226 219 216 213 210 213 211 212 212 213 214 217 221 220 224 219 213 217 220 222 225 227 231 232 236 239 242 249 253 255 257 261 265 266 268 269 271 272 274
340 345 357 342 324 296 262 233 218 214 208 205 207 211 211 210 210 211 215 216 218 220 224 219 217 219 222 226 227 231 234 235 237 241 244 250 254 257 259 260 263 265 266 268 271 274 275
Height
10628 10632 10636 10641 10646 10651 10655 10661 10666 10671 10676 10680 10685 10689 10694 10697 10702 10709 10715 10721 10725 10728 10732 10734 10735 10736 10739 10739 10742 10747 10746 10749 10750 10751 10753 10755 10755 10755 10757 10754 10753 10752 10756 10753 10751 10750 10750
10604 10609 10613 10618 10625 10630 10634 10639 10645 10652 10656 10662 10666 10671 10676 10681 10686 10692 10699 10704 10710 10714 10720 10722 10723 10725 10727 10727 10731 10735 10734 10737 10738 10740 10743 10746 10746 10746 10747 10746 10744 10743 10747 10746 10746 10745 10743
10579 10583 10589 10595 10602 10607 10612 10617 10624 10630 10636 10642 10648 10653 10658 10663 10668 10673 10680 10687 10694 10700 10705 10708 10711 10713 10717 10710 10718 10721 10724 10724 10725 10729 10732 10735 10735 10737 10736 10738 10735 10733 10737 10739 10738 10738 10736
10550 10556 10564 10569 10576 10582 10590 10597 10603 10606 10614 10620 10627 10633 10638 10643 10649 10655 10662 10669 10677 10684 10688 10692 10697 10701 10707 10697 10703 10707 10712 10710 10714 10717 10721 10724 10725 10726 10725 10727 10725 10725 10727 10729 10730 10729 10728
10518 10526 10534 10540 10547 10556 10563 10572 10579 10586 10593 10600 10606 10612 10618 10624 10629 10635 10642 10650 10659 10668 10672 10677 10683 10687 10692 10686 10686 10690 10696 10698 10702 10704 10709 10712 10714 10714 10713 10715 10716 10716 10718 10720 10721 10720 10719
10480 10491 10500 10506 10515 10524 10535 10543 10552 10562 10572 10580 10586 10593 10600 10604 10608 10613 10620 10632 10641 10647 10655 10663 10670 10670 10673 10668 10668 10676 10682 10685 10688 10693 10696 10698 10703 10703 10701 10701 10703 10706 10711 10709 10710 10710 10712
10435 10445 10457 10471 10481 10487 10498 10511 10521 10531 10542 10553 10565 10575 10581 10585 10588 10589 10601 10613 10623 10631 10639 10647 10647 10649 10653 10655 10659 10662 10666 10669 10677 10682 10681 10686 10692 10692 10683 10689 10693 10697 10699 10699 10698 10700 10703
10382 10392 10408 10425 10437 10450 10459 10472 10484 10497 10510 10523 10537 10549 10558 10569 10569 10568 10576 10597 10605 10606 10613 10622 10628 10633 10636 10640 10645 10649 10651 10654 10661 10666 10670 10673 10679 10670 10674 10677 10681 10685 10687 10686 10687 10689 10695
10334 10344 10356 10370 10384 10401 10415 10428 10443 10457 10473 10489 10506 10520 10531 10544 10547 10544 10557 10580 10578 10582 10589 10601 10608 10618 10618 10623 10631 10635 10637 10641 10646 10651 10657 10659 10661 10660 10663 10664 10668 10673 10675 10672 10675 10681 10684
10285 10298 10313 10325 10340 10356 10372 10385 10399 10416 10435 10454 10472 10488 10502 10513 10512 10526 10539 10549 10555 10561 10557 10582 10593 10604 10603 10603 10620 10618 10624 10626 10633 10637 10639 10646 10648 10646 10649 10652 10654 10659 10660 10662 10665 10668 10670
10237 10251 10265 10284 10299 10314 10329 10344 10359 10377 10396 10419 10438 10455 10470 10476 10491 10505 10524 10529 10532 10534 10519 10560 10572 10586 10588 10591 10597 10603 10606 10612 10619 10620 10625 10633 10631 10634 10638 10639 10640 10645 10649 10651 10654 10655 10657
10201 10211 10225 10238 10254 10271 10291 10308 10324 10341 10358 10377 10400 10417 10432 10444 10461 10491 10498 10506 10503 10491 10501 10531 10551 10567 10574 10575 10577 10589 10587 10595 10602 10607 10613 10616 10621 10622 10623 10624 10628 10630 10637 10638 10641 10644 10651
10169 10178 10187 10198 10213 10229 10247 10267 10286 10303 10323 10343 10363 10377 10392 10409 10437 10460 10473 10476 10460 10452 10491 10515 10535 10546 10552 10557 10560 10568 10573 10577 10590 10592 10603 10596 10607 10610 10612 10612 10615 10619 10623 10623 10627 10633 10641
10134 10141 10153 10164 10177 10190 10206 10225 10244 10264 10286 10306 10326 10342 10359 10384 10406 10424 10439 10435 10419 10448 10481 10497 10511 10518 10529 10536 10547 10548 10556 10563 10573 10578 10583 10586 10591 10597 10601 10603 10600 10605 10606 10607 10614 10616 10621
10112 10117 10123 10131 10143 10156 10170 10188 10207 10224 10244 10266 10285 10304 10324 10357 10373 10386 10392 10386 10400 10444 10470 10474 10482 10492 10506 10520 10527 10531 10539 10547 10554 10562 10564 10573 10576 10581 10584 10582 10587 10595 10596 10592 10596 10602 10606
10088 10093 10099 10106 10114 10123 10136 10151 10170 10188 10205 10224 10244 10266 10308 10324 10339 10343 10338 10352 10381 10419 10441 10443 10460 10474 10485 10494 10507 10515 10522 10533 10537 10542 10545 10556 10562 10566 10567 10568 10571 10577 10577 10578 10583 10586 10589
10068 10069 10073 10080 10087 10096 10107 10121 10135 10152 10168 10183 10203 10225 10290 10293 10291 10286 10287 10322 10355 10400 10412 10424 10440 10458 10468 10477 10490 10499 10505 10517 10520 10524 10529 10537 10544 10549 10553 10556 10554 10556 10564 10566 10565 10567 10571
10047 10046 10048 10053 10062 10072 10082 10093 10106 10120 10131 10141 10171 10201 10247 10242 10231 10259 10275 10300 10336 10374 10384 10402 10419 10436 10450 10460 10471 10482 10487 10496 10506 10506 10512 10519 10526 10529 10534 10542 10539 10541 10546 10549 10550 10551 10550
10026 10028 10033 10040 10046 10052 10058 10069 10079 10092 10102 10120 10146 10196 10194 10188 10197 10236 10270 10283 10310 10340 10351 10387 10406 10422 10435 10442 10452 10465 10466 10479 10485 10490 10493 10502 10508 10510 10514 10521 10524 10525 10525 10527 10530 10531 10541
10015 10015 10018 10022 10027 10032 10039 10048 10057 10067 10081 10095 10118 10149 10149 10149 10196 10221 10244 10263 10277 10319 10341 10368 10386 10396 10406 10422 10439 10448 10453 10460 10465 10470 10477 10479 10486 10493 10495 10495 10505 10507 10506 10507 10508 10515 10517
10004 10002 10005 10008 10011 10015 10022 10030 10038 10047 10060 10071 10090 10124 10133 10140 10169 10197 10214 10236 10255 10280 10308 10332 10349 10366 10392 10410 10421 10432 10439 10446 10447 10451 10455 10458 10469 10471 10470 10478 10483 10489 10490 10490 10492 10498 10495
9993 9993 9994 9996 9998 10003 10008 10014 10023 10032 10041 10053 10075 10099 10108 10128 10151 10180 10198 10212 10236 10253 10285 10310 10335 10365 10386 10403 10422 10421 10415 10423 10428 10429 10432 10438 10449 10450 10453 10459 10460 10467 10472 10475 10478 10477 10479
9986 9985 9984 9985 9989 9992 9996 10003 10009 10018 10032 10045 10061 10074 10084 10106 10124 10149 10172 10193 10218 10236 10277 10307 10329 10340 10360 10384 10387 10393 10396 10396 10405 10414 10415 10419 10425 10428 10432 10435 10435 10447 10458 10457 10456 10457 10454
9980 9977 9978 9978 9980 9982 9985 9992 9997 10004 10018 10027 10038 10052 10074 10090 10108 10132 10159 10176 10196 10215 10258 10289 10299 10316 10333 10347 10361 10365 10365 10376 10382 10386 10397 10402 10403 10407 10409 10413 10414 10432 10435 10434 10433 10433 10430
9973 9972 9971 9970 9971 9974 9977 9980 9985 9993 10001 10012 10024 10040 10055 10070 10089 10112 10135 10153 10181 10202 10222 10259 10272 10290 10322 10326 10332 10335 10341 10353 10359 10373 10381 10383 10386 10388 10386 10390 10396 10409 10415 10409 10409 10412 10411
9969 9966 9965 9965 9964 9965 9968 9972 9977 9981 9990 10002 10014 10027 10040 10050 10067 10090 10116 10139 10158 10170 10199 10230 10250 10269 10285 10292 10302 10309 10319 10336 10343 10356 10360 10366 10368 10366 10368 10366 10373 10386 10391 10382 10381 10387 10389
9968 9964 9961 9960 9959 9959 9961 9964 9968 9973 9982 9992 10004 10015 10026 10041 10053 10074 10100 10120 10133 10157 10180 10209 10230 10252 10269 10280 10282 10290 10298 10302 10321 10338 10345 10345 10347 10342 10343 10344 10353 10361 10358 10360 10354 10357 10358
9963 9961 9959 9957 9956 9956 9957 9958 9962 9969 9977 9986 9996 10004 10017 10030 10045 10062 10082 10098 10117 10140 10161 10194 10217 10227 10251 10256 10259 10267 10276 10290 10305 10316 10324 10326 10323 10325 10327 10325 10329 10336 10330 10329 10334 10333 10332
9961 9958 9957 9955 9954 9954 9955 9957 9959 9965 9970 9978 9986 9998 10010 10026 10039 10051 10070 10088 10106 10128 10142 10184 10195 10209 10224 10235 10247 10251 10262 10275 10287 10293 10301 10300 10299 10302 10304 10305 10305 10308 10307 10307 10305 10307 10307